Location: Sungai Dangang
(2.7500°N, 113.8333°E)
Time: 05:44:48
(UTC+00:00)

Ariane 44LP R/B - Pass Details

Date: 16 May 2021
Orbit: 499 x 17810 km, 3.6° (Epoch: 16 June)

Event Time Altitude Azimuth Distance (km) Brightness Sun altitude
Exits shadow 21:06:12 28° 262° (W) 1,329 4.7 -16.7°
Maximum altitude 21:08:31 75° 180° (S) 976 4.4 -16.1°
Drops below altitude 10° 21:20:32 10° 96° (E) 5,765 9.5 -13.3°
Sets 21:29:51 0° 95° (E) 9,204 10.8 -11.1°
